Regional Weather Roundup
Issued by NWS Jackson, KY

Home | Current Version | Previous Version | Text Only | Print | Product List | Glossary Off
Versions: 1 2 3 4 5 6 7 8 9 10 11 12 13 14 15 16 17 18 19 20 21 22 23 24 25 26 27 28 29 30 31 32 33 34 35 36 37 38 39 40 41 42 43 44 45 46 47 48 49 50

000
ASUS43 KJKL 272110
RWRJKL

EAST KENTUCKY HOURLY WEATHER ROUNDUP
NATIONAL WEATHER SERVICE JACKSON KY
400 PM EST SAT DEC 27 2014

NOTE: "FAIR" INDICATES FEW OR NO CLOUDS BELOW 12,000 FEET WITH
NO SIGNIFICANT WEATHER AND/OR OBSTRUCTIONS TO VISIBILITY.

* THESE REPORTS ARE NOT UNDER NWS QUALITY CONTROL AND MAY NOT
  REPORT WEATHER SUCH AS PRECIPITATION AND FOG.

KYZ079-080-083-085-087-088-110-112-115-119-120-272200
...EASTERN KENTUCKY...

CITY           SKY/WX    TMP DP  RH WIND       PRES   REMARKS
JACKSON        CLOUDY    59  29  31 S6        30.13F
LONDON         MOSUNNY   61  26  26 S8        30.14S
SOMERSET*      PTSUNNY   59  34  38 SE3       30.13F
MONTICELLO*    PTSUNNY   61  39  44 CALM      30.14F
MIDDLESBORO*   PTSUNNY   55  31  40 SE5       30.17S
HARLAN APT*    CLOUDY    55  25  30 E10       30.16F
HAZARD APT*    CLOUDY    61  23  23 S5        30.14F
BLACK MTN*       N/A     46  18  31 SW12        N/A
PIKEVILLE APT* CLOUDY    61  28  29 CALM      30.14S
BIG SANDY*     CLOUDY    61  30  31 SW3       30.14F
MOREHEAD APT*  CLOUDY    54  39  58 VRB7      30.15F
$$

KYZ035-036-041-042-044-050-067-078-099-272200
...CENTRAL KENTUCKY...

CITY           SKY/WX    TMP DP  RH WIND       PRES   REMARKS
MT STERLING*   CLOUDY    52  41  66 SW8       30.15S
FLEMING/MASON* CLOUDY    52  43  71 SW9G16    30.14S
DANVILLE*      CLOUDY    52  37  58 S3        30.13F
RICHMOND*      CLOUDY    52  39  62 CALM      30.13S
LEXINGTON      CLOUDY    52  43  71 S5        30.12F
FRANKFORT      CLOUDY    52  43  71 S8        30.11S
$$

KYZ091>093-OHZ055-061-077-WVZ005-015-034-035-042-272200
...SOUTHERN OHIO/WEST VIRGINIA...

CITY           SKY/WX    TMP DP  RH WIND       PRES   REMARKS
COVINGTON      LGT RAIN  49  42  77 S10       30.10S
COLUMBUS       CLOUDY    53  37  54 S12G20    30.07F
DAYTON         CLOUDY    48  44  86 SW13      30.09R
WILMINGTON     CLOUDY    49  43  80 SW14      30.09R
HUNTINGTON     PTSUNNY   58  29  33 S3        30.12F
CHARLESTON     PTSUNNY   61  21  21 SW9       30.13S
PINEVILLE*     CLOUDY    57  40  53 MISG      30.20F
BECKLEY        PTSUNNY   58  10  15 SW8       30.17S
BLUEFIELD      MOSUNNY   62   8  12 W6        30.18F
$$

VAZ002-007-008-TNZ017-027-036-066-071-272200
...SOUTHWEST VIRGINIA/EAST TENNESSEE...

CITY           SKY/WX    TMP DP  RH WIND       PRES   REMARKS
WISE*          PTSUNNY   54  23  30 SW7       30.19F
JONESVILLE*    CLEAR     54  34  47 CALM      30.20F
ABINGDON*      CLOUDY    58  29  33 CALM      30.18F
BRISTOL        CLOUDY    56  31  38 CALM      30.19F
KNOXVILLE      CLOUDY    52  38  58 NE6       30.17F
OAK RIDGE      CLOUDY    54  38  54 SW5       30.18F
CROSSVILLE     CLOUDY    53  35  50 S5        30.16S
NASHVILLE      HVY RAIN  48  46  93 S8        30.14F FOG
$$

...KEY TO REMARKS...
VSB - VISIBILITY IN MILES
WCI - WIND CHILL INDEX
HX  - HEAT INDEX

$$



USA.gov is the U.S. government's official web portal to all federal, state and local government web resources and services.